All
Enua Airport (Atiu (Enua Manu)) AIU Weather
|
Atiu (Enua Manu) (AIU / NCAT)
Clear skies
Calm winds |
|
77 °F |
There is no TAF data available at AIU or any nearby airports.
Recent AIU METAR history
| Date | Time (-10) | Flight Rules | Wind Dir. | Speed | Type | Height AGL (ft) | Visibility | Temp (°C) | Temp (°F) | Dew Point (°C) | Dew Point (°F) | Rel. Humid. | Pressure | Density Altitude | Remarks |
|---|---|---|---|---|---|---|---|---|---|---|---|---|---|---|---|
| 04-May | 05:00PM | n/a | 150° | 2 kt | Missing | 25° | 77° | 23° | 73° | 89% | 1011 mb | 1,316 ft | |||
| 04-May | 04:00PM | n/a | 150° | 2 kt | Missing | 26° | 78° | 23° | 73° | 84% | 1010 mb | 1,466 ft | |||
| 04-May | 03:00PM | n/a | 140° | 3 kt | Missing | 27° | 80° | 24° | 75° | 84% | 1010 mb | 1,586 ft | |||
| 04-May | 02:00PM | n/a | 150° | 4 kt | Missing | 27° | 80° | 24° | 75° | 84% | 1011 mb | 1,556 ft | |||
| 04-May | 01:00PM | n/a | 160° | 4 kt | Missing | 26° | 78° | 24° | 75° | 89% | 1011 mb | 1,436 ft | |||
| 04-May | 12:00PM | n/a | 150° | 3 kt | Missing | 27° | 80° | 24° | 75° | 84% | 1012 mb | 1,527 ft | |||
| 04-May | 11:00AM | n/a | 150° | 2 kt | Missing | 27° | 80° | 24° | 75° | 84% | 1012 mb | 1,527 ft | |||
| 04-May | 10:00AM | n/a | 140° | 2 kt | Missing | 27° | 80° | 25° | 77° | 89% | 1012 mb | 1,527 ft | |||
| 04-May | 09:00AM | n/a | 150° | 2 kt | Missing | 25° | 77° | 24° | 75° | 94% | 1012 mb | 1,287 ft | |||
| 04-May | 08:00AM | n/a | 160° | 2 kt | Missing | 24° | 75° | 24° | 75° | 100% | 1012 mb | 1,167 ft | |||
| 04-May | 07:00AM | n/a | 160° | 1 kt | Missing | 23° | 73° | 23° | 73° | 100% | 1011 mb | 1,076 ft | |||
| 04-May | 06:00AM | n/a | 160° | 2 kt | Missing | 24° | 75° | 23° | 73° | 94% | 1010 mb | 1,226 ft | |||
| 04-May | 05:00AM | n/a | 160° | 1 kt | Missing | 24° | 75° | 24° | 75° | 100% | 1011 mb | 1,196 ft | |||
| 04-May | 04:00AM | n/a | 170° | 1 kt | Missing | 24° | 75° | 24° | 75° | 100% | 1011 mb | 1,196 ft | |||
| 04-May | 03:00AM | n/a | 340° | 1 kt | Missing | 24° | 75° | 24° | 75° | 100% | 1011 mb | 1,196 ft | |||
| 04-May | 02:00AM | n/a | 90° | 1 kt | Missing | 24° | 75° | 24° | 75° | 100% | 1011 mb | 1,196 ft | |||
| 04-May | 01:00AM | n/a | 220° | 1 kt | Missing | 24° | 75° | 23° | 73° | 94% | 1011 mb | 1,196 ft | |||
| 04-May | 12:00AM | n/a | 210° | 1 kt | Missing | 24° | 75° | 23° | 73° | 94% | 1011 mb | 1,196 ft | |||
| 03-May | 11:00PM | n/a | Variable | 1 kt | Missing | 24° | 75° | 23° | 73° | 94% | 1012 mb | 1,167 ft | |||
| 03-May | 10:00PM | n/a | Variable | 1 kt | Missing | 24° | 75° | 23° | 73° | 94% | 1012 mb | 1,167 ft | |||
| 03-May | 09:00PM | n/a | 210° | 2 kt | Missing | 24° | 75° | 24° | 75° | 100% | 1011 mb | 1,196 ft | |||
| 03-May | 08:00PM | n/a | Variable | 1 kt | Missing | 24° | 75° | 24° | 75° | 100% | 1010 mb | 1,226 ft | |||
| 03-May | 07:00PM | n/a | 190° | 1 kt | Missing | 24° | 75° | 24° | 75° | 100% | 1010 mb | 1,226 ft | |||
| 03-May | 06:00PM | n/a | 210° | 2 kt | Missing | 24° | 75° | 24° | 75° | 100% | 1010 mb | 1,226 ft |
Login
| Your browser is unsupported. upgrade your browser |
